Date String (YYYY-MM-DD hh:mm:ss) UTC,Instrument flags,Ambient pressure (hPa),Sample flow (lpm),Bypass flow (lpm),Sample temperature (°C),Ambient temperature (°C),ASC tube jacket temperature (°C),LED temperature (°C),Box temperature (°C),Sample RH (%),Span deviation,Mass concentration (μg/m³),Mass concentration (μg/m³),Mass concentration (μg/m³)
DateTimeUTC,F1_M11,P_M11,Q1_M11,Q2_M11,T1_M11,T2_M11,T3_M11,T4_M11,T5_M11,U1_M11,ZSPAN_M11,X0_M11,X2_M11,X1_M11
2022-02-22 11:00:00,,0822.4,5.00,0.00,22.5,22.0,00.0,31.4,24.2,03.5,0000.3,0007.50,0003.91,0003.42
2022-02-22 11:01:00,,0822.4,5.00,0.00,22.4,21.6,00.0,31.4,24.0,03.5,0000.0,0007.43,0003.92,0003.43
2022-02-22 11:02:00,,0822.5,5.01,0.00,22.3,21.3,00.0,31.4,23.9,03.5,0000.0,0007.27,0003.93,0003.43
2022-02-22 11:03:00,,0822.6,4.99,0.00,22.3,21.2,00.0,31.4,23.8,03.5,0000.0,0007.33,0003.95,0003.42
2022-02-22 11:04:00,,0822.6,5.00,0.00,22.3,21.8,00.0,31.4,24.0,03.5,0000.0,0007.32,0003.94,0003.42
2022-02-22 11:05:00,,0822.5,4.99,0.00,22.4,22.6,00.0,31.4,24.2,03.5,0000.0,0007.39,0003.95,0003.42
2022-02-22 11:06:00,,0822.3,5.00,0.00,22.6,23.2,00.0,31.4,24.4,03.5,0000.0,0007.30,0003.93,0003.42
2022-02-22 11:07:00,,0822.5,4.99,0.00,22.6,23.2,00.0,31.5,24.5,03.5,0000.0,0007.41,0003.92,0003.42
2022-02-22 11:08:00,,0822.6,5.01,0.00,22.6,22.8,00.0,31.5,24.4,03.5,0000.0,0007.39,0003.91,0003.42
2022-02-22 11:09:00,,0822.6,5.01,0.00,22.6,22.4,00.0,31.5,24.3,03.5,0000.0,0007.38,0003.90,0003.42
2022-02-22 11:10:00,,0822.7,5.00,0.00,22.5,21.9,00.0,31.4,24.2,03.5,0000.0,0007.21,0003.87,0003.42
2022-02-22 11:11:00,,0822.7,5.00,0.00,22.5,21.6,00.0,31.4,24.1,03.5,0000.0,0007.18,0003.86,0003.42
2022-02-22 11:12:00,,0822.7,5.00,0.00,22.4,21.4,00.0,31.4,24.0,03.5,0000.0,0007.06,0003.86,0003.42
2022-02-22 11:13:00,,0822.7,5.00,0.00,22.3,21.3,00.0,31.4,23.9,03.5,0000.0,0006.84,0003.87,0003.42
2022-02-22 11:14:00,,0822.8,5.00,0.00,22.3,21.8,00.0,31.4,24.0,03.5,0000.0,0006.76,0003.87,0003.43
2022-02-22 11:15:00,,0823.0,4.99,0.00,22.5,22.6,00.0,31.4,24.2,03.5,0000.0,0006.88,0003.89,0003.43
2022-02-22 11:16:00,,0823.0,5.00,0.00,22.6,23.2,00.0,31.5,24.4,03.4,0000.0,0006.89,0003.92,0003.44
2022-02-22 11:17:00,,0822.8,5.00,0.00,22.7,23.2,00.0,31.5,24.5,03.4,0000.0,0006.76,0003.90,0003.45
2022-02-22 11:18:00,,0822.6,5.01,0.00,22.7,22.8,00.0,31.5,24.5,03.4,0000.0,0006.46,0003.89,0003.46
2022-02-22 11:19:00,,0822.7,5.00,0.00,22.6,22.3,00.0,31.5,24.3,03.4,0000.0,0007.07,0003.94,0003.47
2022-02-22 11:20:00,,0823.0,5.00,0.00,22.6,22.0,00.0,31.5,24.2,03.4,0000.0,0007.65,0003.98,0003.49
2022-02-22 11:21:00,,0823.0,5.00,0.00,22.5,21.7,00.0,31.5,24.1,03.4,0000.0,0007.82,0004.01,0003.50
2022-02-22 11:22:00,,0822.9,4.99,0.00,22.4,21.5,00.0,31.4,24.0,03.4,0000.0,0007.92,0004.05,0003.50
2022-02-22 11:23:00,,0822.8,4.99,0.00,22.4,21.2,00.0,31.4,23.9,03.4,0000.0,0007.84,0004.03,0003.51
2022-02-22 11:24:00,,0822.7,4.99,0.00,22.3,21.3,00.0,31.4,23.9,03.4,0000.0,0007.74,0004.01,0003.50
2022-02-22 11:25:00,,0822.6,5.01,0.00,22.4,22.0,00.0,31.4,24.0,03.4,0000.0,0007.74,0004.01,0003.51
2022-02-22 11:26:00,,0822.8,4.99,0.00,22.5,22.8,00.0,31.5,24.3,03.4,0001.0,0007.69,0004.01,0003.53
2022-02-22 11:27:00,,0823.1,5.00,0.00,22.6,23.3,00.0,31.5,24.5,03.4,0002.6,0007.70,0004.01,0003.54
2022-02-22 11:28:00,,0823.2,4.99,0.00,22.7,23.1,00.0,31.5,24.5,03.4,0001.7,0008.10,0004.03,0003.53
2022-02-22 11:29:00,,0823.0,5.00,0.00,22.7,22.7,00.0,31.5,24.4,03.4,0001.2,0008.20,0004.06,0003.54
2022-02-22 11:30:00,,0823.0,5.00,0.00,22.6,22.3,00.0,31.5,24.3,03.4,0000.6,0008.25,0004.04,0003.53
2022-02-22 11:31:00,,0822.9,4.99,0.00,22.5,21.9,00.0,31.5,24.2,03.4,0000.0,0008.29,0004.01,0003.51
2022-02-22 11:32:00,,0822.9,5.00,0.00,22.5,21.6,00.0,31.5,24.1,03.4,-000.0,0008.23,0003.99,0003.50
2022-02-22 11:33:00,,0822.9,5.01,0.00,22.4,21.4,00.0,31.4,24.0,03.4,-000.0,0008.22,0003.98,0003.49
2022-02-22 11:34:00,,0823.0,4.99,0.00,22.3,21.2,00.0,31.4,23.9,03.4,0000.0,0008.44,0004.02,0003.49
2022-02-22 11:35:00,,0823.1,5.00,0.00,22.3,21.5,00.0,31.4,23.9,03.4,0000.0,0008.44,0004.02,0003.49
2022-02-22 11:36:00,,0823.1,5.01,0.00,22.4,22.2,00.0,31.4,24.1,03.4,0000.0,0008.50,0004.02,0003.49
2022-02-22 11:37:00,,0823.2,5.00,0.00,22.5,22.9,00.0,31.5,24.4,03.4,0000.0,0008.96,0004.03,0003.49
2022-02-22 11:38:00,,0823.2,5.00,0.00,22.7,23.2,00.0,31.5,24.5,03.4,0000.0,0009.12,0004.03,0003.49
2022-02-22 11:39:00,,0823.0,4.99,0.00,22.7,22.9,00.0,31.5,24.5,03.4,0000.0,0008.77,0004.02,0003.50
2022-02-22 11:40:00,,0823.0,5.00,0.00,22.6,22.5,00.0,31.5,24.4,03.4,0000.0,0008.73,0004.02,0003.50
2022-02-22 11:41:00,,0823.2,5.00,0.00,22.6,22.1,00.0,31.5,24.3,03.4,-000.3,0008.58,0004.07,0003.52
2022-02-22 11:42:00,,0823.5,5.00,0.00,22.5,21.8,00.0,31.5,24.2,03.4,0000.0,0008.36,0004.07,0003.53
2022-02-22 11:43:00,,0823.5,5.00,0.00,22.5,21.6,00.0,31.5,24.1,03.4,0000.0,0008.36,0004.09,0003.55
2022-02-22 11:44:00,,0823.4,5.01,0.00,22.4,21.4,00.0,31.4,24.0,03.4,0000.0,0008.23,0004.08,0003.55
2022-02-22 11:45:00,,0823.5,5.01,0.00,22.3,21.3,00.0,31.4,23.9,03.4,0000.0,0008.14,0004.07,0003.57
2022-02-22 11:46:00,,0823.4,4.99,0.00,22.4,21.9,00.0,31.4,24.0,03.4,0000.0,0008.17,0004.08,0003.58
2022-02-22 11:47:00,,0823.6,5.01,0.00,22.5,22.6,00.0,31.4,24.2,03.4,0000.0,0008.54,0004.07,0003.58
2022-02-22 11:48:00,,0823.8,5.00,0.00,22.6,23.2,00.0,31.5,24.5,03.4,0000.0,0009.00,0004.08,0003.58
2022-02-22 11:49:00,,0823.6,5.00,0.00,22.7,23.3,00.0,31.5,24.6,03.3,0000.0,0008.77,0004.09,0003.60
2022-02-22 11:50:00,,0823.4,4.99,0.00,22.7,22.9,00.0,31.5,24.5,03.3,0000.0,0008.79,0004.11,0003.61
2022-02-22 11:51:00,,0823.6,5.01,0.00,22.6,22.4,00.0,31.5,24.3,03.3,0000.0,0009.19,0004.14,0003.62
2022-02-22 11:52:00,,0823.7,4.99,0.00,22.6,22.0,00.0,31.5,24.2,03.3,0000.0,0009.23,0004.11,0003.63
2022-02-22 11:53:00,,0823.6,5.00,0.00,22.5,21.7,00.0,31.5,24.1,03.4,0000.0,0008.84,0004.10,0003.64
2022-02-22 11:54:00,,0823.3,5.02,0.00,22.4,21.5,00.0,31.5,24.0,03.4,0000.1,0008.86,0004.10,0003.65
2022-02-22 11:55:00,,0823.5,4.99,0.00,22.4,21.3,00.0,31.4,23.9,03.4,0000.4,0008.91,0004.12,0003.66
2022-02-22 11:56:00,,0823.5,5.00,0.00,22.3,21.3,00.0,31.4,23.9,03.4,0000.7,0008.83,0004.11,0003.67
2022-02-22 11:57:00,,0823.5,5.01,0.00,22.4,22.0,00.0,31.4,24.0,03.4,0001.6,0008.84,0004.10,0003.67
2022-02-22 11:58:00,,0823.7,5.00,0.00,22.5,22.7,00.0,31.4,24.2,03.4,0002.7,0008.89,0004.10,0003.67
2022-02-22 11:59:00,,0823.8,5.00,0.00,22.6,23.2,00.0,31.5,24.4,03.3,0001.4,0007.94,0004.08,0003.68
